Location: Songkhla
(7.2000°N, 100.6000°E)
Time: 14:56:18
(UTC+07:00)

ISS - Visible Passes

Search period start: 26 April 2017 00:00
Search period end: 06 May 2017 00:00
Orbit: 400 x 409 km, 51.6° (Epoch: 26 April)

Date Brightness Start Highest point End Pass type
(mag) Time Alt. Az. Time Alt. Az. Time Alt. Az.
26 Apr -1.6 05:40:36 10° S 05:43:17 24° SE 05:45:58 10° ENE visible
28 Apr -3.9 05:31:47 10° SW 05:35:02 77° NW 05:38:17 10° NNE visible
29 Apr -2.4 04:41:56 28° SSE 04:42:47 33° SE 04:45:46 10° ENE visible
30 Apr -2.1 05:25:08 14° W 05:26:47 19° NW 05:29:10 10° N visible
01 May -2.6 04:35:31 34° N 04:35:31 34° N 04:37:38 10° NNE visible
